LiveATC.Net - Listen to live air traffic control over the Internet!


ICAO: CYXY  IATA: YXY   Airport: Whitehorse International General Airport
City: Whitehorse   State/Province: Yukon
Country: Canada   Continent: North America
CYXY METAR Weather: CYXY 300200Z VRB02KT 30SM BKN055 OVC085 10/04 A3011 RMK SC6AC2 SLP224
CYXY Flight Activity (FlightAware)
CYXY Gnd/Twr/Center
Feed Status: DOWN
Last heard on: 2016-08-06 07:32:03 (23 days 19 hours 42 minutes ago)
CYXY Gnd/Twr/Center Audio Archives
FacilityFrequency
Edmonton Center (Klondike Sector)132.100
Edmonton Center (Northern Low Sector)134.150
Whitehorse Ground121.900
Whitehorse Tower118.300


NOTICE

Unauthorized use prohibited. See LiveATC.net Terms of Service


Find LiveATC Audio Streams


Airport/ARTCC Code

Frequency
(e.g., 124.400, 128.75)
Site-wide search

Browse LiveATC Feeds
LiveATC Coverage Map
Top 50 LiveATC Feeds
Bad Weather Areas

LiveATC FAQ
Offer a LiveATC Feed
Contact LiveATC.net
Press Inquiries

LiveATC on iPhone
LiveATC on Android

Windows Phone
Windows 8/10

LiveATC Mobile
(Mobile browser)

ATC Audio Archives
Interesting Recordings

LiveATC Forums


Home Page
About LiveATC.net
Make a Donation
LiveATC Store

Terms of Use
Privacy Policy

Canadian Air Freqs

AIRMETs/SIGMETs

FAA Airport Status
Nat'l Airspace Status
Arrival Demand Charts


Server Software By:
Icecast.org
Liquidsoap